Miller Place, New York, United States (11764)
Lat: 40.96N, Lon: 73W
Wx Zone: NYZ078
Local Info
Past Weather Observations for Today

NOTE: This archive is for the closest National Weather Service station to Miller Place. Information may differ from the station used for current weather conditions.

Click here for Long-term Archive

Time Weather Temperature Dewpoint Humidity Pressure Winds Precip Visibility
13:25
Overcast
63°F / 17°C 61°F / 16°C 94% 30.18 in
(1022 mb)
Variable 5.8 mph
(Variable 9 kph)
- 10SM
12:56
Overcast
63°F / 17°C 61°F / 16°C 94% 30.18 in
(1022 mb)
Variable 6.9 mph
(Variable 11 kph)
- 7SM
12:09
Overcast
63°F / 17°C 61°F / 16°C 94% 30.18 in
(1022 mb)
Variable 6.9 mph
(Variable 11 kph)
- 10SM
11:56
Overcast
63°F / 17°C 61°F / 16°C 94% 30.18 in
(1022 mb)
Variable 4.6 mph
(Variable 7 kph)
- 10SM
11:44
Overcast
63°F / 17°C 61°F / 16°C 94% 30.18 in
(1022 mb)
Variable 6.9 mph
(Variable 11 kph)
- 10SM
11:12
Overcast
63°F / 17°C 61°F / 16°C 94% 30.21 in
(1023 mb)
NE 6.9 mph
(NE 11 kph)
- 10SM
10:56
Overcast
63°F / 17°C 61°F / 16°C 94% 30.18 in
(1022 mb)
Variable 6.9 mph
(Variable 11 kph)
- 8SM
10:35
Overcast
Fog And Mist
61°F / 16°C 61°F / 16°C 100% 30.21 in
(1023 mb)
Variable 5.8 mph
(Variable 9 kph)
- 4SM
09:56
Overcast
Fog And Mist
61°F / 16°C 61°F / 16°C 100% 30.21 in
(1023 mb)
Variable 6.9 mph
(Variable 11 kph)
- 2 1/2SM
09:42
Overcast
Fog And Mist
61°F / 16°C 61°F / 16°C 100% 30.21 in
(1023 mb)
Variable 6.9 mph
(Variable 11 kph)
- 2 1/2SM
08:56
Overcast
Fog And Mist
61°F / 16°C 61°F / 16°C 100% 30.21 in
(1023 mb)
Variable 6.9 mph
(Variable 11 kph)
- 6SM
08:07
Overcast
Fog And Mist
61°F / 16°C 61°F / 16°C 100% 30.21 in
(1023 mb)
Variable 4.6 mph
(Variable 7 kph)
- 4SM
07:56
Overcast
Fog And Mist
61°F / 16°C 61°F / 16°C 100% 30.21 in
(1023 mb)
Variable 5.8 mph
(Variable 9 kph)
- 2 1/2SM
07:34
Overcast
Fog And Mist
61°F / 16°C 59°F / 15°C 94% 30.21 in
(1023 mb)
Variable 5.8 mph
(Variable 9 kph)
- 4SM
06:56
Overcast
Fog And Mist
61°F / 16°C 59°F / 15°C 94% 30.21 in
(1023 mb)
NNE 8.1 mph
(NNE 13 kph)
- 2 1/2SM
06:17
Overcast
Fog And Mist
59°F / 15°C 59°F / 15°C 100% 30.21 in
(1023 mb)
Variable 4.6 mph
(Variable 7 kph)
- 2 1/2SM
05:56
Overcast
Fog And Mist
59°F / 15°C 59°F / 15°C 100% 30.18 in
(1022 mb)
NNE 8.1 mph
(NNE 13 kph)
0.00 in
(0.00 mm)
5SM
04:56
Overcast
Light Rain
59°F / 15°C 57°F / 14°C 94% 30.21 in
(1023 mb)
NNE 8.1 mph
(NNE 13 kph)
0.01 in
(0.25 mm)
7SM
03:56
Overcast
Light Rain
59°F / 15°C 59°F / 15°C 100% 30.18 in
(1022 mb)
NE 9.2 mph
(NE 15 kph)
0.01 in
(0.25 mm)
3SM
02:56
Overcast
59°F / 15°C 57°F / 14°C 94% 30.18 in
(1022 mb)
NNE 8.1 mph
(NNE 13 kph)
0.00 in
(0.00 mm)
8SM
01:56
Overcast
59°F / 15°C 57°F / 14°C 94% 30.21 in
(1023 mb)
Variable 5.8 mph
(Variable 9 kph)
0.01 in
(0.25 mm)
8SM
00:56
Overcast
Fog And Mist
59°F / 15°C 57°F / 14°C 94% 30.21 in
(1023 mb)
NNE 6.9 mph
(NNE 11 kph)
0.00 in
(0.00 mm)
5SM
Time Weather Temperature Dewpoint Humidity Pressure Winds Precip Visibility


Weather for websites

WeatherForYou.com, LLC is not responsible for any damages or problems caused by this service. Current weather conditions are obtained from the closest station including government and personal stations which may have varying degrees of accuracy. Weather forecasts are derived from the NOAA NDFD. Like all things, this site belongs to Jesus Christ... He just trusts us to maintain it. If you have any questions or comments email webmaster@weatherforyou.com

Copyright © 2016, WeatherForYou.com LLC. All rights reserved.